Flag Weather past 2 weeks in Fukuoka, Japan

Now
64 °F

Passing clouds.


Feels Like: 64 °F
Forecast: 53 / 70 °F
Wind: 6 mph from Northeast

Location: Fukuoka Airport

Current Time: Nov 27, 2014 at 1:31:30 PM

Latest Report: Nov 27, 2014 at 12:30 PM


Visibility: N/A

Pressure: 30.15 "Hg

Humidity: 46%

Dew point: 43 °F

Location of FukuokaLocation

Historic Weather in Fukuoka — Graph

°F

Fukuoka temperature yesterday

Maximum temperature yesterday: 61 °F (at 9:30 AM)
Minimum temperature yesterday: 52 °F (at 10:00 PM)
Average temperature yesterday: 57 °F

Past Weeks' High & Low Weather Summary

 TemperatureHumidityPressure
High72 °F (Nov 24, 12:00 PM)100% (Nov 22, 6:00 AM)30.39 "Hg (Nov 22, 6:00 AM)
Low43 °F (Nov 19, 7:00 AM)36% (Nov 15, 3:00 PM)29.77 "Hg (Nov 25, 4:00 AM)
Average55 °F68%30.16 "Hg
* Reported Nov 12 12:00 Noon — Nov 27 12:30 PM, Fukuoka, Weather by CustomWeather, © 2014

Note: Actual official high and low records may vary slightly from our data, if they occured in-between our weather recording intervals... More about our weather records

Advertising

Fukuoka weather history for previous 24 hours

 ConditionsComfort  
Time TempWeatherWind HumidityBarometerVisibility
12:30 PM
Nov 27
64 °FPassing clouds.6 mph46%30.15 "HgN/A
12:00 PM64 °FPassing clouds.8 mph52%30.18 "HgN/A
11:30 AM64 °FPassing clouds.7 mph52%30.18 "HgN/A
11:00 AM63 °FPassing clouds.3 mph56%30.18 "HgN/A
10:30 AM61 °FPassing clouds.3 mph63%30.21 "HgN/A
10:00 AM57 °FPassing clouds.6 mph77%30.24 "HgN/A
9:30 AM57 °FPassing clouds.3 mph77%30.24 "HgN/A
8:30 AM52 °FPassing clouds.3 mph88%30.21 "HgN/A
8:00 AM50 °FPassing clouds.3 mph94%30.21 "HgN/A
7:30 AM48 °FPassing clouds.2 mph100%30.21 "HgN/A
7:00 AM48 °FPassing clouds.3 mph94%30.18 "HgN/A
6:30 AM46 °FPassing clouds.3 mph100%30.18 "HgN/A
6:00 AM48 °FClear.3 mph94%30.18 "Hg10 mi
5:30 AM48 °FPassing clouds.7 mph100%30.15 "HgN/A
5:00 AM48 °FPassing clouds.6 mph100%30.15 "HgN/A
4:30 AM50 °FPassing clouds.6 mph94%30.15 "HgN/A
4:00 AM48 °FPassing clouds.6 mph100%30.15 "HgN/A
3:30 AM48 °FPassing clouds.3 mph100%30.15 "HgN/A
3:00 AM52 °FPassing clouds.3 mph94%30.15 "HgN/A
2:30 AM50 °FPassing clouds.5 mph100%30.15 "HgN/A
2:00 AM50 °FPassing clouds.3 mph100%30.12 "HgN/A
1:30 AM52 °FSprinkles. Passing clouds.3 mph94%30.12 "HgN/A
1:00 AM48 °FPassing clouds.3 mph100%30.12 "HgN/A
12:30 AM52 °FPassing clouds.3 mph94%30.12 "HgN/A
12:00 AM52 °FPassing clouds.3 mph94%30.12 "HgN/A
11:30 PM
Nov 26
52 °FPassing clouds.2 mph94%30.12 "HgN/A
11:00 PM54 °FPassing clouds.2 mph88%30.12 "HgN/A
10:30 PM52 °FPassing clouds.2 mph94%30.12 "HgN/A
10:00 PM52 °FPassing clouds.1 mph94%30.09 "HgN/A
9:30 PM54 °FPassing clouds.3 mph88%30.09 "HgN/A
9:00 PM54 °FLight rain. Passing clouds.2 mph88%30.09 "HgN/A
8:30 PM54 °FPassing clouds.3 mph88%30.07 "HgN/A
8:00 PM54 °FPassing clouds.3 mph94%30.07 "HgN/A
7:30 PM55 °FPassing clouds.3 mph88%30.07 "HgN/A
7:00 PM55 °FPassing clouds.5 mph88%30.04 "HgN/A
6:30 PM57 °FPassing clouds.6 mph82%30.04 "HgN/A
6:00 PM57 °FPassing clouds.6 mph82%30.01 "HgN/A
5:30 PM57 °FPartly cloudy.3 mph82%30.01 "HgN/A
5:00 PM59 °FBroken clouds.5 mph77%29.98 "HgN/A
4:30 PM59 °FPartly sunny.3 mph82%29.98 "HgN/A
4:00 PM59 °FBroken clouds.3 mph82%29.98 "HgN/A
3:30 PM59 °FLight rain. Partly sunny.2 mph82%29.98 "HgN/A
3:00 PM57 °FLight rain. Broken clouds.3 mph82%29.95 "HgN/A
2:30 PM57 °FLight rain. Broken clouds.7 mph88%29.98 "HgN/A
2:00 PM57 °FRain showers. Broken clouds.6 mph88%29.95 "Hg4 mi
1:30 PM57 °FSprinkles. Broken clouds.8 mph94%29.95 "Hg4 mi
1:00 PM59 °FSprinkles. Broken clouds.8 mph88%29.95 "Hg6 mi
Weather by CustomWeather, © 2014

See weather overviewHow to use our weather pages